Regional Weather Roundup
Issued by NWS

Home | Current Version | Previous Version | Text Only | Print | Product List | Glossary On
Versions: 1 2 3 4 5 6 7 8 9 10 11 12 13 14 15 16 17 18 19 20 21 22 23 24 25 26 27 28 29 30 31 32 33 34 35 36 37 38 39 40 41 42 43 44 45 46 47 48 49 50
000
ASUS44 KLUB 210710
RWRTX
WEST TEXAS WEATHER ROUNDUP
NATIONAL WEATHER SERVICE LUBBOCK TX
200 AM CDT TUE OCT 21 2014

NOTE: "FAIR" INDICATES FEW OR NO CLOUDS BELOW 12,000 FEET WITH NO
SIGNIFICANT WEATHER AND/OR OBSTRUCTIONS TO VISIBILITY.

TXZ004-006>008-010-012-014-016-OKZ002-210800-
TEXAS PANHANDLE/OKLAHOMA PANHANDLE

CITY           SKY/WX    TMP DP  RH WIND       PRES   REMARKS
AMARILLO       CLEAR     58  52  80 S9        30.12R
BORGER         CLEAR     61  51  70 SW5       30.09R
CANADIAN       CLEAR     57  56  96 CALM      30.06R
DALHART        CLEAR     51  46  83 NW3       30.12F
DUMAS          CLEAR     51  46  80 S3        30.11R
GUYMON         CLEAR     54  52  93 CALM      30.08S
HEREFORD       CLEAR     54  52  92 SW3       30.13S
PAMPA          CLEAR     56  52  86 SW8       30.10S
PERRYTON       CLEAR     56  55  94 E7        30.07F
$$

TXZ026-029-035-045-048-210800-
SOUTHERN PANHANDLE/SOUTH PLAINS/ROLLING PLAINS

CITY           SKY/WX    TMP DP  RH WIND       PRES   REMARKS
CHILDRESS      CLEAR     64  55  72 S7        30.07R
SEMINOLE       PTCLDY    56  51  82 CALM      30.12R
LUBBOCK        PTCLDY    57  51  80 S6        30.10S
PLAINVIEW      PTCLDY    55  52  90 CALM      30.10S
SNYDER         CLEAR     60  53  75 S8        30.09S
$$

TXZ052-054-060>062-072-078-127-140-154-169-210800-
PERMIAN BASIN/CONCHO VALLEY/BIG COUNTRY/EDWARDS PLATEAU

CITY           SKY/WX    TMP DP  RH WIND       PRES   REMARKS
ABILENE        CLEAR     63  54  72 S6        30.07S
BIG SPRING     CLEAR     63  53  69 E8        30.11R
BRADY          CLEAR     61  55  82 SE3       30.07S
BROWNWOOD      MOCLDY    59  55  88 CALM      30.07S
JUNCTION       CLEAR     57  54  89 NW3       30.07R
MIDLAND        CLEAR     62  51  67 S6        30.08S
ODESSA         CLEAR     62  51  67 SE6       30.09S
SAN ANGELO     CLEAR     60  51  72 CALM      30.07R
SONORA         CLEAR     64  55  72 CALM      30.11S
SWEETWATER     CLEAR     61  53  76 S8        30.12R
WINK           PTCLDY    61  60  97 E5        30.06S
$$

TXZ055-058-074-075-080-082-210800-
FAR WEST/SOUTHWEST MOUNTAINS/TRANS PECOS

CITY           SKY/WX    TMP DP  RH WIND       PRES   REMARKS
ALPINE         PTCLDY    59  55  86 CALM      30.16R
DRYDEN           N/A     66  62  87 NE7       30.02F
EL PASO        MOCLDY    61  55  81 N9        30.07S
FORT STOCKTON  MOCLDY    63  58  83 SE9       30.06F
GUADALUPE PASS CLOUDY    56  53  90 NE14      30.17R
MARFA          CLOUDY    55  55 100 E9        30.14S
PECOS          CLOUDY    63  61  95 NE3       30.06S
PRESIDIO       CLOUDY    66  59  77 N10       30.03R
$$

TXZ014-016-019-021>030-083-210800
TEXAS TECH WEST TEXAS MESONET/TEXAS PANHANDLE/NORTHERN SOUTH PLAINS

CITY           SKY/WX    TMP DP  RH WIND       PRES   REMARKS
ABERNATHY 5ENE   N/A     53  51  92 S5        30.12S
AMARILLO 9NNE    N/A     52  49  89 S2        30.11S
AMARILLO 7SSE    N/A     53  50  89 SW5       30.13S
AMHERST 1NE      N/A     55  51  86 SW6       30.13S
BOOTLEG 11WNW    N/A     52  49  92 SW7       30.16S
CANADIAN 6E      N/A     60  56  86 E6        30.05S
CAPROCK CYN SP   N/A     64  54  70 SW8       30.09S
CHILDRESS 2NNE   N/A     64  55  72 S9        30.06R
CLARENDON 2WSW   N/A     57  53  86 S5        30.10R
CLAUDE 12SW      N/A     61  52  72 S2        30.12S
DIMMITT 2NE      N/A     57  51  81 SW8       30.13S
FLOYDADA 2NNE    N/A     57  52  84 S7        30.11R
FRIONA 2NE       N/A     51  49  92 SW1       30.14S
GOODLETT 3W      N/A     62  54  73 S5        30.04S
HART 3N          N/A     51  49  93 W5        30.13S
HEREFORD 2NW     N/A     54  48  80 SW5       30.13S
MCLEAN 1E        N/A     60  53  77 S5        30.08R
MEMPHIS 1NE      N/A     57  51  80 NW2       30.07R
MULESHOE 2SSW    N/A     50  48  94 SW5       30.13S
OLTON 6S         N/A     53  50  89 SW5       30.12S
PALO DURO SP     N/A     58  52  78 S5        30.13S
PAMPA 2E         N/A     58  52  82 S6        30.10R
PLAINVIEW 1S     N/A     54  52  93 CALM      30.11S
SILVERTON 7ESE   N/A     57  52  84 S7        30.11S
TULIA 2ENE       N/A     56  51  86 SW7       30.12S
TURKEY 2WSW      N/A     60  55  82 SW8       30.07S
UMBARGER 3NNE    N/A     54  50  86 SW7       30.13S
$$

TXZ033>036-039>041-045>048-210800
TEXAS TECH WEST TEXAS MESONET/SOUTH PLAINS

CITY           SKY/WX    TMP DP  RH WIND       PRES   REMARKS
AIKEN 3WSW       N/A     53  51  92 SW5       30.12S
ANDREWS 2NE      N/A     57  50  78 E1        30.10S
ANTON 6SSW       N/A     54  51  90 S1        30.12R
BROWNFIELD 2S    N/A     55  49  80 S5        30.11S
DENVR CTY 7WNW   N/A     56  51  83 SE3       30.12S
GAIL 2ESE        N/A     56  50  80 N1        30.09R
LAMESA 2SE       N/A     57  51  80 SE7       30.11R
LEVELLAND 4S     N/A     52  48  86 S5        30.12S
LUBBOCK 3WNW     N/A     58  51  75 S5        30.11S
MORTON 1ENE      N/A     52  50  93 W5        30.13S
ODONNELL 1N      N/A     59  50  72 SE3       30.10S
PLAINS 3N        N/A     58  51  76 S3        30.13S
RALLS 1SE        N/A     57  52  82 S5        30.11S
REESE CENTER     N/A     54  50  87 S5        30.11S
SEMINOLE 2NNE    N/A     55  49  80 CALM      30.11S
SLATON 2NE       N/A     56  51  84 S9        30.10S
SNYDER 3E        N/A     60  53  77 S10       30.08S
SUNDOWN 8SW      N/A     54  50  85 S5        30.12S
TAHOKA 3NNE      N/A     56  50  82 S5        30.10S
WOLFFORTH 6SSW   N/A     53  50  89 S2        30.12S
$$

TXZ031-032-036>038-042>044-210800-
TEXAS TECH WEST TEXAS MESONET/ROLLING PLAINS

CITY           SKY/WX    TMP DP  RH WIND       PRES   REMARKS
ASPERMONT 3NE    N/A     61  54  77 S6        30.06S
FLUVANNA 3WNW    N/A     58  51  75 SE8       30.09S
GRAHAM 5SSW      N/A     63  51  64 S3        30.10S
GUTHRIE 10WSW    N/A     62  54  75 S2        30.06S
HASKELL 1NW      N/A     62  53  71 S3        30.06R
JAYTON 1SSE      N/A     60  54  80 SW3       30.07S
KNOX CITY 3NW    N/A     61  54  77 S3        30.06R
LK A HENRY 1NW   N/A     63  53  70 SW6       30.08R
NORTHFIELD 1S    N/A     61  55  81 SW5       30.06S
ODELL 4ENE       N/A     66  57  73 S9        30.05S
PADUCAH 10SW     N/A     60  55  83 SW8       30.06S
POST 1NE         N/A     62  51  67 S5        30.09S
RRING SPRGS 3N   N/A     58  54  88 SW7       30.08S
SPUR 1W          N/A     53  50  89 NW3       30.07S
WEINERT 2NNE     N/A     60  55  84 S5        30.06S
WHITE RVR 6NE    N/A     63  53  70 SW3       30.09S
$$

TXZ052-054-060>062-072-078-127-140-154-169-210800-
TEXAS TECH WEST TEXAS MESONET/PERMIAN BASIN/
CONCHO VALLEY/BIG COUNTRY/EDWARDS PLATEAU

CITY           SKY/WX    TMP DP  RH WIND       PRES   REMARKS
COYANOSA 2N      N/A     61  59  93 NE5       30.07S
JUNCTION 1SSW    N/A     55  53  93 N1        30.07S
MERTZON 3NNE     N/A     52  47  83 CALM      30.09S
SAN ANGELO 7NW   N/A     58  51  77 NE2       30.07S
STRLNG CT 4WSW   N/A     55  50  83 NE2       30.09S
ST LAWRNCE 5SW   N/A     57  50  78 E6        30.09R
SWEETWATR 11SW   N/A     59  53  83 SE8       30.10S
WALL 1E          N/A     58  52  79 SE5       30.07S
$$

TXZ055-058-074-075-080-082-210800-
TEXAS TECH WEST TEXAS MESONET/FAR WEST/SOUTHWEST MOUNTAINS/TRANS PECOS

CITY           SKY/WX    TMP DP  RH WIND       PRES   REMARKS
PRSMN GAP BBNP   N/A     65  60  83 N15       30.03S
GUADLPE MTN NP   N/A     55  52  89 NE5       30.18S
$$



USA.gov is the U.S. government's official web portal to all federal, state and local government web resources and services.